N812WJ -KOKV

Flight info

Callsign N812WJ
Flight time N/A
Altitude
Route
Aircraft

Departure

Time N/A
Airport -

Arrival

Time 2026-04-12 19:18
Airport Winchester Regional Airport (KOKV)
Time Latitude Longitude Altitude Speed Heading
2026-04-12 18:45 37.86745 -79.29333 7539 ft 183 kts 30°
2026-04-12 18:45 37.87804 -79.28402 7538 ft 184 kts 30°
2026-04-12 18:45 37.88853 -79.27479 7542 ft 184 kts 30°
2026-04-12 18:45 37.89893 -79.26562 7537 ft 185 kts 30°
2026-04-12 18:46 37.90954 -79.25627 7509 ft 187 kts 30°
2026-04-12 18:46 37.92018 -79.24686 7520 ft 186 kts 30°
2026-04-12 18:46 37.93086 -79.23742 7520 ft 186 kts 30°
2026-04-12 18:46 37.94137 -79.22818 7521 ft 186 kts 30°
2026-04-12 18:47 37.95202 -79.21877 7505 ft 185 kts 30°
2026-04-12 18:47 37.96261 -79.20939 7514 ft 185 kts 30°
2026-04-12 18:47 37.97328 -79.20000 7432 ft 191 kts 30°
2026-04-12 18:47 37.98432 -79.19025 7220 ft 199 kts 30°
2026-04-12 18:48 37.99592 -79.17997 7012 ft 205 kts 30°
2026-04-12 18:48 38.00782 -79.16953 6807 ft 210 kts 30°
2026-04-12 18:48 38.01963 -79.15901 6591 ft 209 kts 31°
2026-04-12 18:48 38.03152 -79.14845 6363 ft 208 kts 30°
2026-04-12 18:49 38.04342 -79.13792 6135 ft 209 kts 31°
2026-04-12 18:49 38.05535 -79.12734 5919 ft 210 kts 31°
2026-04-12 18:49 38.06736 -79.11665 5695 ft 210 kts 32°
2026-04-12 18:49 38.07936 -79.10605 5512 ft 208 kts 32°
2026-04-12 18:50 38.09082 -79.09591 5503 ft 198 kts 31°
2026-04-12 18:50 38.10193 -79.08596 5503 ft 194 kts 32°
2026-04-12 18:50 38.11294 -79.07625 5500 ft 191 kts 31°
2026-04-12 18:50 38.12387 -79.06662 5495 ft 191 kts 32°
2026-04-12 18:51 38.13462 -79.05690 5513 ft 189 kts 31°
2026-04-12 18:51 38.14530 -79.04759 5509 ft 186 kts 31°
2026-04-12 18:51 38.15585 -79.03813 5503 ft 184 kts 32°
2026-04-12 18:51 38.16630 -79.02881 5500 ft 182 kts 32°
2026-04-12 18:52 38.17676 -79.01955 5511 ft 184 kts 31°
2026-04-12 18:52 38.18725 -79.01017 5508 ft 184 kts 32°
2026-04-12 18:52 38.19769 -79.00086 5508 ft 184 kts 32°
2026-04-12 18:52 38.20822 -78.99146 5511 ft 184 kts 31°
2026-04-12 18:53 38.21858 -78.98226 5512 ft 183 kts 31°
2026-04-12 18:53 38.22909 -78.97295 5510 ft 185 kts 31°
2026-04-12 18:53 38.23961 -78.96347 5511 ft 186 kts 32°
2026-04-12 18:53 38.25021 -78.95392 5517 ft 186 kts 31°
2026-04-12 18:54 38.26099 -78.94441 5512 ft 188 kts 31°
2026-04-12 18:54 38.27166 -78.93498 5514 ft 189 kts 32°
2026-04-12 18:54 38.28233 -78.92543 5517 ft 185 kts 32°
2026-04-12 18:54 38.29292 -78.91594 5509 ft 184 kts 31°
2026-04-12 18:55 38.30382 -78.90869 5609 ft 174 kts 22°
2026-04-12 18:55 38.31458 -78.90154 5664 ft 178 kts 23°
2026-04-12 18:55 38.32567 -78.89346 5547 ft 187 kts 27°
2026-04-12 18:55 38.33674 -78.88487 5475 ft 187 kts 27°
2026-04-12 18:56 38.34790 -78.87651 5479 ft 185 kts 26°
2026-04-12 18:56 38.35908 -78.86820 5476 ft 186 kts 26°
2026-04-12 18:56 38.37033 -78.85991 5474 ft 187 kts 25°
2026-04-12 18:56 38.38160 -78.85148 5470 ft 187 kts 25°
2026-04-12 18:57 38.39274 -78.84315 5468 ft 186 kts 25°
2026-04-12 18:57 38.40399 -78.83479 5472 ft 187 kts 25°
2026-04-12 18:57 38.41511 -78.82649 5468 ft 187 kts 24°
2026-04-12 18:57 38.42633 -78.81816 5472 ft 186 kts 25°
2026-04-12 18:58 38.43756 -78.80979 5477 ft 187 kts 25°
2026-04-12 18:58 38.44883 -78.80127 5476 ft 188 kts 25°
2026-04-12 18:58 38.46002 -78.79299 5475 ft 187 kts 26°
2026-04-12 18:58 38.47130 -78.78454 5475 ft 187 kts 25°
2026-04-12 18:59 38.48238 -78.77623 5472 ft 185 kts 25°
2026-04-12 18:59 38.49355 -78.76801 5474 ft 185 kts 25°
2026-04-12 18:59 38.50471 -78.75962 5476 ft 186 kts 25°
2026-04-12 18:59 38.51588 -78.75124 5478 ft 186 kts 25°
2026-04-12 19:00 38.52693 -78.74298 5483 ft 187 kts 25°
2026-04-12 19:00 38.53818 -78.73455 5513 ft 185 kts 25°
2026-04-12 19:00 38.54923 -78.72627 5560 ft 184 kts 25°
2026-04-12 19:00 38.56039 -78.71793 5558 ft 186 kts 25°
2026-04-12 19:01 38.57144 -78.70967 5563 ft 186 kts 25°
2026-04-12 19:01 38.58263 -78.70122 5566 ft 186 kts 25°
2026-04-12 19:01 38.59382 -78.69287 5564 ft 186 kts 24°
2026-04-12 19:01 38.60500 -78.68446 5562 ft 186 kts 25°
2026-04-12 19:02 38.61628 -78.67604 5538 ft 187 kts 25°
2026-04-12 19:02 38.62751 -78.66762 5543 ft 187 kts 25°
2026-04-12 19:02 38.63869 -78.65923 5546 ft 189 kts 25°
2026-04-12 19:02 38.65009 -78.65066 5548 ft 191 kts 25°
2026-04-12 19:03 38.66163 -78.64201 5551 ft 193 kts 25°
2026-04-12 19:03 38.67320 -78.63329 5566 ft 191 kts 26°
2026-04-12 19:03 38.68450 -78.62482 5570 ft 189 kts 25°
2026-04-12 19:03 38.69605 -78.61612 5562 ft 194 kts 25°
2026-04-12 19:04 38.70761 -78.60742 5558 ft 191 kts 25°
2026-04-12 19:04 38.71894 -78.59888 5560 ft 190 kts 25°
2026-04-12 19:04 38.73040 -78.59029 5560 ft 191 kts 26°
2026-04-12 19:04 38.74184 -78.58164 5554 ft 190 kts 25°
2026-04-12 19:05 38.74939 -78.57597 5554 ft 190 kts 25°
2026-04-12 19:05 38.76084 -78.56728 5552 ft 191 kts 26°
2026-04-12 19:05 38.77231 -78.55864 5546 ft 190 kts 26°
2026-04-12 19:05 38.78746 -78.54724 5544 ft 191 kts 25°
2026-04-12 19:06 38.79504 -78.54154 5551 ft 190 kts 25°
2026-04-12 19:06 38.80637 -78.53297 5548 ft 188 kts 25°
2026-04-12 19:06 38.81756 -78.52450 5547 ft 186 kts 25°
2026-04-12 19:06 38.82868 -78.51642 5552 ft 182 kts 22°
2026-04-12 19:07 38.83952 -78.50806 5531 ft 183 kts 26°
2026-04-12 19:07 38.85043 -78.49958 5532 ft 182 kts 25°
2026-04-12 19:07 38.86143 -78.49125 5535 ft 184 kts 25°
2026-04-12 19:07 38.87251 -78.48294 5529 ft 184 kts 25°
2026-04-12 19:08 38.88353 -78.47460 5532 ft 183 kts 25°
2026-04-12 19:08 38.89446 -78.46640 5532 ft 185 kts 25°
2026-04-12 19:08 38.90577 -78.45784 5366 ft 194 kts 25°
2026-04-12 19:08 38.91763 -78.44888 5159 ft 202 kts 26°
2026-04-12 19:09 38.92948 -78.43875 4933 ft 209 kts 38°
2026-04-12 19:09 38.93988 -78.42584 4712 ft 207 kts 43°
2026-04-12 19:09 38.95022 -78.41299 4480 ft 204 kts 43°
2026-04-12 19:09 38.96033 -78.40076 4254 ft 200 kts 44°
2026-04-12 19:10 38.97063 -78.38873 4026 ft 198 kts 43°
2026-04-12 19:10 38.98087 -78.37720 3823 ft 198 kts 42°
2026-04-12 19:10 38.99156 -78.36568 3592 ft 201 kts 44°
2026-04-12 19:10 39.00248 -78.35430 3373 ft 200 kts 43°
2026-04-12 19:11 39.01305 -78.34328 3153 ft 197 kts 44°
2026-04-12 19:11 39.02362 -78.33231 2932 ft 192 kts 41°
2026-04-12 19:11 39.03408 -78.32184 2708 ft 188 kts 43°
2026-04-12 19:11 39.04364 -78.31054 2481 ft 185 kts 49°
2026-04-12 19:12 39.05265 -78.29922 2250 ft 181 kts 49°
2026-04-12 19:12 39.06179 -78.28802 2042 ft 181 kts 49°
2026-04-12 19:12 39.07082 -78.27687 1802 ft 178 kts 50°
2026-04-12 19:12 39.07967 -78.26588 1691 ft 170 kts 45°
2026-04-12 19:13 39.08767 -78.25591 1768 ft 154 kts 50°
2026-04-12 19:13 39.09540 -78.24598 1690 ft 156 kts 53°
2026-04-12 19:13 39.10250 -78.23580 1715 ft 152 kts 53°
2026-04-12 19:13 39.10948 -78.22574 1724 ft 149 kts 59°
2026-04-12 19:14 39.11532 -78.21493 1723 ft 150 kts 63°
2026-04-12 19:14 39.12157 -78.20389 1723 ft 153 kts 61°
2026-04-12 19:14 39.12770 -78.19275 1725 ft 151 kts 67°
2026-04-12 19:14 39.13209 -78.18089 1727 ft 148 kts 72°
2026-04-12 19:15 39.13612 -78.16886 1726 ft 142 kts 73°
2026-04-12 19:15 39.14021 -78.15773 1718 ft 134 kts 73°
2026-04-12 19:15 39.14381 -78.14690 1705 ft 127 kts 82°
2026-04-12 19:15 39.14873 -78.13820 1822 ft 124 kts 23°
2026-04-12 19:16 39.15671 -78.13998 1835 ft 120 kts 309°
2026-04-12 19:16 39.16233 -78.14736 1799 ft 113 kts 303°
2026-04-12 19:16 39.16764 -78.15479 1788 ft 112 kts 309°
2026-04-12 19:16 39.17242 -78.16226 1790 ft 106 kts 279°
2026-04-12 19:17 39.17067 -78.16862 1840 ft 81 kts 202°
2026-04-12 19:17 39.16473 -78.16889 1622 ft 95 kts 164°
2026-04-12 19:17 39.15915 -78.16426 1342 ft 91 kts 150°
2026-04-12 19:17 39.15496 -78.15981 1074 ft 72 kts 145°
2026-04-12 19:18 39.15109 -78.15472 840 ft 84 kts 130°
2026-04-12 19:18 39.14796 -78.15041 701 ft 47 kts 134°
2026-04-12 19:18 39.14626 -78.14813 695 ft 26 kts 135°
2026-04-12 19:18 39.14506 -78.14656 701 ft 25 kts 135°
2026-04-12 19:19 39.14423 -78.14567 700 ft 8 kts 180°
2026-04-12 19:19 39.14380 -78.14606 702 ft 1 kts 229°
2026-04-12 19:19 39.14378 -78.14608 702 ft 0 kts 230°
2026-04-12 19:19 39.14369 -78.14623 703 ft 3 kts 231°
2026-04-12 19:20 39.14360 -78.14634 699 ft 2 kts 217°
2026-04-12 19:20 39.14340 -78.14653 703 ft 5 kts 211°
2026-04-12 19:20 39.14297 -78.14659 709 ft 7 kts 167°
2026-04-12 19:20 39.14263 -78.14643 710 ft 3 kts 147°
2026-04-12 19:21 39.14260 -78.14640 710 ft 0 kts 138°